Location: Hawks Ness
(60.2333°N, 1.1667°W)
Time: 06:12:47
(UTC+00:00)

IRS-1C - Pass Details

Date: 22 October 2019
Orbit: 815 x 817 km, 98.8° (Epoch: 17 November)

Event Time Altitude Azimuth Distance (km) Brightness Sun altitude
Rises 02:50:55 0° 18° (NNE) 3,360 8.1 -30.4°
Reaches altitude 10° 02:53:16 10° 20° (NNE) 2,424 7.2 -30.2°
Enters shadow 02:58:04 70° 45° (NE) 873 4.3 -29.7°
